Volver al catálogo

STARLINK-37155

ActivoComunicacionesSSO
NORAD 68314·PAYLOAD·🇺🇸 United States

Lanzado Mar 20, 2026 desde Vandenberg Space Force Base

Loading…

Próximos Pases (próximas 24 horas)

TLE

ActualizadoSource: CelesTrak SupGP

Época: Sep 15, 2026, 03:20 UTC

1 68314C 26057W   26258.13937500  .00005789  00000+0  17969-3 0  2584
2 68314  97.2862  23.6232 0001163  93.0699 224.1248 15.33439123    11

Sigue STARLINK-37155 en tiempo real con AllMySat

Download on the App Store